Home   Weather   Saipan   Past weeks

Flag for Northern Mariana Islands Past Weather in Saipan, Northern Mariana Islands — Yesterday and Last 2 Weeks

Now
81 °F

Passing clouds.


Feels Like: 86 °F
Forecast: 74 / 80 °F
Wind: 10 mph from East

Location: Saipan International Airport

Current Time: Apr 30, 2017 at 11:04:27 pm

Latest Report: Apr 30, 2017 at 9:54 pm


Visibility: 10 mi

Pressure: 30.02 "Hg

Humidity: 79%

Dew Point: 74 °F

Location of SaipanLocation

Past Weather in Saipan — Graph

°F

Saipan Temperature Yesterday

Maximum temperature yesterday: 86 °F (at 9:54 am)
Minimum temperature yesterday: 79 °F (at 12:54 am)
Average temperature yesterday: 82 °F

High & Low Weather Summary for the Past Weeks

 TemperatureHumidityPressure
High89 °F (Apr 16, 12:54 pm)100% (Apr 26, 1:54 am)30.04 "Hg (Apr 26, 1:54 am)
Low75 °F (Apr 27, 3:54 am)57% (Apr 16, 12:54 pm)29.84 "Hg (Apr 23, 3:05 am)
Average82 °F80%29.96 "Hg
* Reported Apr 15 9:54 pm — Apr 30 9:54 pm, Saipan, Weather by CustomWeather, © 2017

Note: Actual official high and low records may vary slightly from our data, if they occured in-between our weather recording intervals... More about our weather records

Advertising

Saipan Weather History for the Previous 24 Hours

Scroll right to see more
 ConditionsComfort  
Time TempWeatherWind HumidityBarometerVisibility
9:54 pm
Sun, Apr 30
81 °FPassing clouds.10 mph79%30.02 "Hg10 mi
8:54 pm81 °FPassing clouds.13 mph82%30.00 "Hg10 mi
7:54 pm81 °FPassing clouds.10 mph82%30.00 "Hg10 mi
6:54 pm81 °FPassing clouds.9 mph79%29.98 "Hg10 mi
5:54 pm82 °FPassing clouds.14 mph77%29.96 "Hg10 mi
4:54 pm84 °FScattered clouds.16 mph74%29.96 "Hg10 mi
3:54 pm86 °FScattered clouds.14 mph72%29.96 "Hg10 mi
2:54 pm87 °FScattered clouds.13 mph69%29.96 "Hg10 mi
1:54 pm87 °FScattered clouds.13 mph67%29.97 "Hg10 mi
12:54 pm87 °FScattered clouds.15 mph67%29.99 "Hg10 mi
11:54 am88 °FScattered clouds.16 mph67%30.00 "Hg10 mi
10:54 am88 °FScattered clouds.14 mph67%30.02 "Hg10 mi
9:54 am86 °FScattered clouds.9 mph75%30.04 "Hg10 mi
8:54 am84 °FScattered clouds.9 mph74%30.04 "Hg10 mi
7:54 am81 °FScattered clouds.12 mph82%30.03 "Hg10 mi
6:54 am79 °FScattered clouds.9 mph88%30.01 "Hg10 mi
6:47 am79 °FScattered clouds.7 mph88%29.95 "Hg10 mi
6:14 am79 °FMostly cloudy.9 mph89%29.94 "Hg10 mi
4:54 am79 °FPassing clouds.8 mph88%29.98 "Hg10 mi
3:54 am79 °FPassing clouds.8 mph88%29.98 "Hg10 mi
2:54 am79 °FPassing clouds.6 mph88%29.98 "Hg10 mi
1:54 am79 °FPassing clouds.6 mph88%29.98 "Hg10 mi
12:54 am79 °FPassing clouds.6 mph84%29.98 "Hg10 mi
11:54 pm
Sat, Apr 29
79 °FPassing clouds.3 mph84%30.00 "Hg10 mi
Weather by CustomWeather, © 2017

See weather overviewHow to use our weather pages